Regional Weather Roundup
Issued by NWS Nashville, TN

Home | Current Version | Previous Version | Text Only | Print | Product List | Glossary On
Versions: 1 2 3 4 5 6 7 8 9 10 11 12 13 14 15 16 17 18 19 20 21 22 23 24 25 26 27
000
ASUS44 KOHX 241310
RWROHX
MIDDLE TENNESSEE HOURLY WEATHER ROUNDUP
NATIONAL WEATHER SERVICE NASHVILLE TN
800 AM CDT WED AUG 24 2016

NOTE: "FAIR" INDICATES FEW OR NO CLOUDS BELOW 12,000 FEET WITH
NO SIGNIFICANT WEATHER AND/OR OBSTRUCTIONS TO VISIBILITY.

* THESE REPORTS ARE NOT UNDER NWS QUALITY CONTROL AND MAY NOT
  REPORT WEATHER SUCH AS PRECIPITATION AND FOG.


TNZ005>011-023>034-057-059-062>066-078-080-241400
...NORTHERN MIDDLE TENNESSEE...

CITY           SKY/WX    TMP DP  RH WIND       PRES   REMARKS
CLARKSVILLE    MOSUNNY   75  71  87 CALM      30.19S
CROSSVILLE     MOSUNNY   74  67  78 VRB3      30.31R
NASHVILLE      CLOUDY    75  70  84 SE3       30.23R
WEST NASHVILLE SUNNY     72  72 100 CALM      30.21S
SMYRNA         SUNNY     73  70  88 MISG      30.23R
SPARTA         SUNNY     75  70  83 S5        30.25R
$$
TNZ056-058-060-061-075>077-079-093>097-241400
...SOUTHERN MIDDLE TENNESSEE...

CITY           SKY/WX    TMP DP  RH WIND       PRES   REMARKS
COLUMBIA       SUNNY    N/A N/A N/A CALM      30.22R
FAYETTEVILLE   SUNNY     73  70  88 CALM      30.25R
MCMINNVILLE    SUNNY     73  73 100 CALM      30.26R
SHELBYVILLE    SUNNY     75  72  88 E3        30.25R
TULLAHOMA      SUNNY     73  70  88 S3        30.26S
WINCHESTER     SUNNY     75  72  88 SE3       30.25S
$$


...KEY TO REMARKS...
VSB - VISIBILITY IN MILES
WCI - WIND CHILL INDEX
HX  - HEAT INDEX





USA.gov is the U.S. government's official web portal to all federal, state and local government web resources and services.